User: anonymous   Login
Location: G�yn�k
(36.6721°N, 30.5542°E)
Time: 13:32:44
(UTC+00:00)
Language:

BREEZE-M DEB (TANK) - Orbit

View from above orbital plane
View from above orbital plane
View from above satellite
View from above satellite

Ground track
Ground track

The orbit data is extracted from the following two-line orbital elements,

1 39010U 12065C   21016.80024529  .00000547  00000-0  13239-3 0  9994
2 39010  49.6932 328.6095 4658140 279.7546  32.4277  6.16659631180893
Epoch (UTC): 16 January 2021 19:12:21
Eccentricity: 0.4658140
inclination: 49.6932°
perigee height: 332 km
apogee height: 12034 km
right ascension of ascending node: 328.6095°
argument of perigee: 279.7546°
revolutions per day: 6.16659631
mean anomaly at epoch: 32.4277°
orbit number at epoch: 18089

The dashed part of the orbit path shows where the satellite is in the earth's shadow,  

DLR